Meteo Giornale » Osservazioni meteo Gran Bretagna » Bristol-Lulsgate

ore: 19:50 - Osservazioni Meteo Bristol-Lulsgate
Lat. 51° 23' N Lon. 2° 43' W Alt. 189 metri s.l.m.

sereno

16 °C

Sereno

Temp. 24 Ore

12 °C

20 °C

Ovest

16.7 Km/h

Dew point 13 °C

Umidità 82 %

Visibilità  10 Km

Il sole sorge alle ore 06:23

Il sole tramonta alle ore 19:57

Data e Ora Cielo e Fenomeni T °C DP °C Um. % Pres. hPa Vis. km Vento km/h
Oggi h: 19:50 sereno Sereno 16 13 82 1020 10 O 16.7
Oggi h: 19:20 sereno Sereno 17 12 72 1020 10 O 16.7
Oggi h: 18:50 poco_nuvoloso Poco Nuvoloso 17 11 67 1020 10 O 18.5
Oggi h: 18:20 molto_nuvoloso Molto Nuvoloso 18 12 67 1021 10 O/NO 22.2
Oggi h: 17:50 molto_nuvoloso Molto Nuvoloso 18 12 67 1020 10 O/NO 22.2
Oggi h: 17:20 molto_nuvoloso Molto Nuvoloso 18 10 59 1020 10 O 18.5
Oggi h: 16:50 poco_nuvoloso Poco Nuvoloso 19 11 59 1021 10 O 18.5
Oggi h: 16:20 sereno Sereno 19 11 59 1020 10 O 20.3
Oggi h: 15:50 sereno Sereno 19 11 59 1020 10 O/SO 16.7
Oggi h: 15:20 sereno Sereno 19 11 59 1021 10 O 18.5
Oggi h: 14:50 nuvoloso Nuvoloso 20 12 59 1021 10 O 22.2
Oggi h: 14:20 poco_nuvoloso Poco Nuvoloso 20 12 59 1021 10 O 16.7
Oggi h: 13:50 nuvoloso Nuvoloso 20 11 56 1021 10 O 22.2
Oggi h: 13:20 nuvoloso Nuvoloso 19 12 63 1021 10 O 18.5
Oggi h: 12:50 poco_nuvoloso Poco Nuvoloso 18 12 67 1021 10 O/SO 18.5
Oggi h: 12:20 molto_nuvoloso Molto Nuvoloso 17 13 77 1021 10 O 20.3
Oggi h: 11:50 molto_nuvoloso Molto Nuvoloso 17 12 72 1021 10 O/SO 18.5
Oggi h: 11:20 coperto Coperto 17 13 77 1021 10 O/SO 14.8
Oggi h: 10:50 poco_nuvoloso Poco Nuvoloso 17 13 77 1021 10 O/SO 14.8
Oggi h: 10:20 poco_nuvoloso Poco Nuvoloso 16 14 87 1021 10 SO 11.1
Oggi h: 09:50 nuvoloso Nuvoloso 16 14 87 1021 10 SO 9.3
Oggi h: 09:20 molto_nuvoloso Molto Nuvoloso 14 13 93 1021 10 S/SO 7.4
Oggi h: 08:50 coperto_pioggia Pioggia 13 13 100 1021 10 SO 9.3
Oggi h: 08:20 coperto Coperto 13 13 100 1021 10 S/SO 9.3
Oggi h: 07:50 molto_nuvoloso Molto Nuvoloso 13 13 100 1021 10 S/SO 9.3
Oggi h: 07:20 coperto Coperto 13 12 93 1020 8 S/SO 7.4
Oggi h: 06:50 coperto Coperto 12 12 100 1020 10 S/SO 7.4
Oggi h: 06:20 coperto_pioggia Pioviggine 12 12 100 1020 2 O/SO 9.3
Oggi h: 05:50 coperto Coperto 13 11 87 1020 10 N 5.5
Oggi h: 05:20 coperto Coperto 13 11 87 1020 10 S 7.4
Oggi h: 04:50 molto_nuvoloso Molto Nuvoloso 12 11 93 1020 10 S 7.4
Oggi h: 04:20 poco_nuvoloso Poco Nuvoloso 12 10 87 1020 10 S 7.4
Oggi h: 03:50 molto_nuvoloso Molto Nuvoloso 12 10 87 1020 10 N 5.5
Oggi h: 03:20 nuvoloso Nuvoloso 13 10 81 1020 10 SO 7.4
Oggi h: 02:50 sereno Sereno 12 10 87 1020 10 N 5.5
Oggi h: 02:20 sereno Sereno 12 10 87 1020 10 N 5.5
Oggi h: 01:50 sereno Sereno 12 10 87 1020 10 O 7.4
Oggi h: 01:20 sereno Sereno 12 9 81 1020 10 O/NO 9.3
Oggi h: 00:50 sereno Sereno 13 10 81 1020 10 O/NO 9.3
Oggi h: 00:20 sereno Sereno 13 10 81 1020 10 O 11.1
Ieri h: 23:50 sereno Sereno 13 10 81 1020 10 O 7.4
Ieri h: 23:20 sereno Sereno 14 11 82 1020 10 O 13
Ieri h: 22:50 nuvoloso Nuvoloso 14 11 82 1020 10 O 11.1
Ieri h: 22:20 molto_nuvoloso Molto Nuvoloso 14 11 82 1019 10 O 14.8
Ieri h: 21:50 molto_nuvoloso Molto Nuvoloso 15 11 76 1019 10 O 16.7
Ieri h: 21:20 molto_nuvoloso Molto Nuvoloso 14 10 76 1019 10 O 16.7
Ieri h: 20:50 nuvoloso Nuvoloso 15 10 72 1019 10 O 18.5